Regional Weather Roundup
Issued by NWS

Home | Current Version | Previous Version | Text Only | Print | Product List | Glossary Off
Versions: 1 2 3 4 5 6 7 8 9 10 11 12 13 14 15 16 17 18 19 20 21 22 23 24 25 26 27 28 29 30 31 32 33 34 35 36 37 38 39 40 41 42 43 44 45 46 47 48 49 50

000
ASUS45 KTFX 290204
RWRMT
MONTANA HOURLY WEATHER ROUNDUP
NATIONAL WEATHER SERVICE GREAT FALLS MT
804 PM MDT SAT MAR 28 2015

NOTE: "FAIR" INDICATES FEW OR NO CLOUDS BELOW 12000 FEET WITH NO
SIGNIFICANT WEATHER AND/OR OBSTRUCTIONS TO VISIBILITY.

* THESE STATIONS ARE NOT UNDER NWS QUALITY CONTROL. THEY DO NOT
   REPORT WEATHER SUCH AS PRECIPITATION OR FOG.

MTZ001>007-043-290300-
WEST OF THE DIVIDE
CITY           SKY/WX    TMP DP  RH WIND       PRES   REMARKS
KALISPELL      CLOUDY    50  34  54 SW12      30.17R
MISSOULA       MOCLDY    46  30  54 W13       30.26R
BUTTE          CLOUDY    43  19  38 NW15G23   30.22R
MULLAN PASS    CLOUDY    34  30  85 VRB5      30.23R WCI  29
* ESSEX        N/A       38  37  96 N/A        N/A
* LINCOLN      N/A       43  29  58 SW6G24     N/A
* LOOKOUT PASS N/A       40  34  79 NE5G10     N/A   WCI  36
* POLSON       N/A       42  37  83 W2G9       N/A
* RONAN APT    MOCLDY    48  39  71 N/A        N/A
* SEELEY LAKE  N/A       43  29  58 NW6G16     N/A
* THOMP F APT  MOCLDY    47  11  23 N6G22      N/A
$$

MTZ008-052>055-290300-
SOUTHWEST MONTANA
CITY           SKY/WX    TMP DP  RH WIND       PRES   REMARKS
BOZEMAN        MOCLDY    46  19  34 W14       30.16R
DILLON         PTCLDY    45  16  31 N8        30.19R
* W YELLOWSTON CLOUDY    42  11  28 NW3G17     N/A
* TWIN BRIDGES PTCLDY    48  16  28 W7         N/A
* BOULDER HILL N/A       40  18  41 NE6G13     N/A   WCI  36
* HOMESTAKE PS N/A       37  18  46 NW20G30    N/A   WCI  27
* MONIDA PASS  N/A       40  11  30 N16G26     N/A   WCI  32
* RAYNOLDS PAS N/A       41  39  93 NW14G27    N/A
* WHITEHALL    N/A       51  18  27 W11G31     N/A
* WISE RIVER   N/A       41  20  43 W22G36     N/A
$$

MTZ009>010-012-014-046-048-049-054-290300-
EAST SLOPES AND CENTRAL MONTANA
CITY           SKY/WX    TMP DP  RH WIND       PRES   REMARKS
CUT BANK       CLOUDY    46  30  54 W22       30.03R
GREAT FALLS    CLOUDY    48  27  44 W18G26    30.05R
HELENA         CLOUDY    48  25  41 W26G40    30.11R
MALMSTROM AFB  LGT RAIN  46  36  68 NW12G18   30.07R
* DEARBORN     N/A       51  26  38 S17G22     N/A
* EAST GLACIER N/A       40  31  70 SW14       N/A   WCI  32
* MONARCH      N/A       37  27  67 NW26G44    N/A   WCI  25
* PENDROY      N/A       45  25  45 NW20G31    N/A
* ROGERS PASS  N/A       39  26  60 SE13G26    N/A   WCI  31
* SAINT MARY   N/A       41  32  70 S10G23     N/A
$$

MTZ011-013-016-021-035-040-045-047-050-051-290300-
NORTH CENTRAL MONTANA
CITY           SKY/WX    TMP DP  RH WIND       PRES   REMARKS
HAVRE          LGT RAIN  45  41  86 W15       29.93R
LEWISTOWN      CLOUDY    45  28  51 W37G53    29.97R
* N BAR RANCH  CLOUDY    43  27  53 NW39G49   29.92R
* MALTA APT    CLOUDY    45  39  80 SW24G31    N/A
* CHESTER      N/A       41  37  86 NW25G36    N/A
* DENTON       N/A       41  34  76 W29G42     N/A
* GEYSER       N/A       39  33  79 W24G36     N/A   WCI  28
* JUDITH GAP   N/A       45  20  37 NW29G36    N/A
* LOMA         N/A       44  38  80 W26G35     N/A
$$

MTZ017>020-022>027-061-062-290300-
NORTHEAST MONTANA
CITY           SKY/WX    TMP DP  RH WIND       PRES   REMARKS
GLASGOW        LGT RAIN  46  39  77 W26G35    29.72R
GLENDIVE       PTCLDY    52  39  61 W18G25    29.73S
JORDAN         PTCLDY    52  28  40 W30G43    29.79R
SIDNEY         CLOUDY    52  39  61 W22G30    29.66R
WOLF POINT     LGT RAIN  54  36  51 W25G41    29.69R
* BEAVER HILL  N/A       50  38  64 W21G30     N/A
* CIRCLE       N/A       51  39  64 W11G18     N/A
* LINDSAY DVD  N/A       48  38  68 W22G30     N/A
* NAVAJO       N/A       50  40  69 W29G40     N/A
* SACO         N/A       47  42  83 W28G34     N/A
$$

MTZ028>042-056>058-290300-
SOUTHCENTRAL AND SOUTHEAST MONTANA
CITY           SKY/WX    TMP DP  RH WIND       PRES   REMARKS
BAKER          PTCLDY    48  41  77 W18       29.76R
BILLINGS       FAIR      54  16  22 NW31G44   29.96R
LIVINGSTON     PTCLDY    48  16  28 W30G43    30.09R
MILES CITY     MOCLDY    55  23  29 NW24G36   29.80R
* LAUREL APT   CLEAR     55  14  20 W24G40     N/A
* ROUNDUP APT  PTCLDY    54  18  24 W20G28     N/A
* ALZADA       N/A       55  33  43 NW13G19    N/A
* HYSHAM       N/A       55  16  21 NW28G35    N/A
* LAME DEER    N/A       52  13  21 W15G34     N/A
* REED POINT   N/A       51  19  28 W21G29     N/A
* ROSCOE HILL  N/A       46   4  17 W7G24      N/A
$$

REGIONAL REPORTS...DAKOTAS
CITY           SKY/WX    TMP DP  RH WIND       PRES   REMARKS
WILLISTON      CLOUDY    54  45  72 W20       29.59R
DICKINSON      CLOUDY    48  43  83 W25G36    29.64R
CROSBY         CLOUDY    50  50 100 NW8       29.55R
WATFORD CITY   MOCLDY    52  45  77 W20G26    29.60R
BISMARCK       LGT RAIN  57  50  78 NW8       29.60R
GRAND FORKS    MOCLDY    46  30  54 S24G35    29.60F
FARGO          LGT RAIN  46  30  54 SE24G38   29.69F
BUFFALO SD     MOCLDY    54  43  67 NW29G38   29.67R
RAPID CITY     MOCLDY    64  39  40 NW48G58   29.67R
$$

REGIONAL REPORTS...WYOMING/IDAHO/WASHINGTON
CITY           SKY/WX    TMP DP  RH WIND       PRES   REMARKS
GILLETTE       CLOUDY    54  25  33 NW22G31   29.86R
SHERIDAN       MOCLDY    55  10  16 NW36G56   29.89R
CODY           PTCLDY    54  18  24 W20G29    29.95S
YELLOWSTONE LA CLOUDY    36   9  32 NW10G21   30.19R WCI  29
SALMON         PTCLDY   N/A N/A N/A N15G21    30.23R
MULLAN PASS    CLOUDY    34  30  85 VRB5      30.23S WCI  29
SAND POINT     CLOUDY    50  41  71 CALM      30.20R
SPOKANE        MOCLDY    52  34  50 SW14      30.23R

$$




USA.gov is the U.S. government's official web portal to all federal, state and local government web resources and services.